Home > Weather > Langevåg > Past weeks

Flag for Norway Past Weather in Langevåg, Norway — Yesterday and Last 2 Weeks

Now
57 °F

Partly cloudy.


Feels Like: 56 °F
Forecast: 54 / 60 °F
Wind: 7 mph from Northwest

Location: Alesund / Vigra

Current Time: Aug 25, 2016 at 6:53:37 AM

Latest Report: Aug 25, 2016 at 5:50 AM


Visibility: N/A

Pressure: 30.12 "Hg

Humidity: 88%

Dew Point: 54 °F

Location of LangevågLocation

Past Weather in Langevåg — Graph

°F

Langevåg Temperature Yesterday

Maximum temperature yesterday: 61 °F (at 1:50 PM)
Minimum temperature yesterday: 55 °F (at 9:20 PM)
Average temperature yesterday: 59 °F

High & Low Weather Summary for the Past Weeks

 TemperatureHumidityPressure
High68 °F (Aug 17, 12:50 PM)100% (Aug 12, 9:20 PM)30.30 "Hg (Aug 12, 9:20 PM)
Low45 °F (Aug 10, 11:20 PM)49% (Aug 14, 4:20 PM)29.47 "Hg (Aug 12, 5:50 PM)
Average57 °F85%29.97 "Hg
* Reported Aug 10 5:20 AM — Aug 25 5:50 AM, Langevåg, Weather by CustomWeather, © 2016

Note: Actual official high and low records may vary slightly from our data, if they occured in-between our weather recording intervals... More about our weather records

Advertising

Langevåg Weather History for the Previous 24 Hours

Scroll right to see more
 ConditionsComfort  
Time TempWeatherWind HumidityBarometerVisibility
5:50 AM
Thu, Aug 25
57 °FPartly cloudy.7 mph88%30.12 "HgN/A
5:20 AM57 °FMostly cloudy.5 mph82%30.12 "HgN/A
4:50 AM57 °FOvercast.6 mph82%30.12 "HgN/A
4:20 AM57 °FOvercast.7 mph82%30.12 "HgN/A
3:50 AM57 °FOvercast.8 mph82%30.12 "HgN/A
3:20 AM57 °FOvercast.7 mph82%30.12 "HgN/A
2:50 AM57 °FOvercast.7 mph77%30.12 "HgN/A
2:20 AM57 °FOvercast.8 mph82%30.12 "HgN/A
1:50 AM55 °FOvercast.8 mph88%30.12 "HgN/A
1:20 AM55 °FOvercast.9 mph88%30.12 "HgN/A
12:50 AM57 °FOvercast.9 mph82%30.12 "HgN/A
12:20 AM57 °FMostly cloudy.9 mph88%30.12 "HgN/A
11:50 PM
Wed, Aug 24
57 °FOvercast.9 mph88%30.09 "HgN/A
11:20 PM57 °FOvercast.9 mph88%30.09 "HgN/A
10:50 PM57 °FOvercast.12 mph88%30.09 "HgN/A
10:20 PM57 °FPassing clouds.10 mph88%30.09 "HgN/A
9:50 PM57 °FPartly sunny.12 mph88%30.07 "HgN/A
9:20 PM55 °FPartly sunny.14 mph94%30.07 "HgN/A
8:50 PM57 °FBroken clouds.16 mph94%30.07 "HgN/A
8:20 PM59 °FBroken clouds.15 mph88%30.04 "HgN/A
7:50 PM59 °FPartly sunny.15 mph94%30.04 "HgN/A
7:20 PM59 °FSprinkles. Broken clouds.13 mph94%30.04 "HgN/A
6:50 PM61 °FScattered showers. Broken clouds.7 mph94%30.04 "HgN/A
6:20 PM61 °FScattered showers. Broken clouds.7 mph94%30.04 "HgN/A
5:50 PM59 °FScattered showers. Partly sunny.9 mph94%30.04 "HgN/A
5:20 PM59 °FDrizzle. Broken clouds.6 mph94%30.01 "Hg4 mi
4:50 PM61 °FPartly sunny.5 mph88%30.04 "HgN/A
4:20 PM61 °FDrizzle. Partly sunny.2 mph88%30.04 "HgN/A
3:50 PM61 °FRain. Partly sunny.5 mph88%30.04 "Hg6 mi
3:20 PM61 °FDrizzle. Partly sunny.6 mph94%30.04 "HgN/A
2:50 PM61 °FScattered clouds.7 mph88%30.04 "HgN/A
2:20 PM61 °FLight rain. Scattered clouds.8 mph88%30.04 "HgN/A
1:50 PM61 °FLight rain. Broken clouds.7 mph94%30.07 "HgN/A
1:20 PM59 °FLight rain. Broken clouds.8 mph94%30.07 "HgN/A
12:50 PM59 °FLight rain. Broken clouds.9 mph94%30.07 "HgN/A
12:20 PM59 °FLight rain. Broken clouds.8 mph94%30.07 "HgN/A
11:50 AM59 °FDrizzle. Broken clouds.12 mph94%30.09 "HgN/A
11:20 AM59 °FBroken clouds.7 mph94%30.09 "HgN/A
10:50 AM59 °FDrizzle. Broken clouds.8 mph94%30.09 "HgN/A
10:20 AM59 °FDrizzle. Partly sunny.6 mph94%30.09 "HgN/A
9:50 AM59 °FDrizzle. Partly sunny.6 mph94%30.12 "HgN/A
9:20 AM59 °FPartly sunny.6 mph94%30.12 "HgN/A
8:50 AM59 °FDrizzle. Partly sunny.3 mph94%30.12 "HgN/A
8:20 AM59 °FDrizzle. Broken clouds.No wind94%30.12 "Hg5 mi
7:50 AM59 °FLight rain. Broken clouds.1 mph94%30.15 "Hg4 mi
7:20 AM59 °FLight rain. Broken clouds.1 mph94%30.12 "HgN/A
6:50 AM59 °FPartly cloudy.3 mph94%30.15 "HgN/A
6:20 AM59 °FPartly cloudy.6 mph88%30.12 "HgN/A
Weather by CustomWeather, © 2016

See weather overviewHow to use our weather pages